SCP
0 0 0 0 0 0 0 0 0 0 0 0 0 0 0 0 0 0 0 0 0 0 0 0 0 0 0 0 0 0 0 0 0 0 0 0 0 0 0 0 0 0 0 0 0 0 0 0 0 0 0 0 0 0
0 0 0 0 0 0 0 0 0 0 0 0 0 0 0 0 0 0 0 0 0 0 0 0 0 0 0 0 0 0 0 0 0 0 0 0 0 0 0 0 0 0 0 0 0 0 0 0 0 0 0 0 0 0
0 0 0 0 0 0 0 0 0 0 0 0 0 0 0 0 0 0 0 0 0 0 0 0 0 0 0 0 0 0 0 0 0 0 0 0 0 0 0 0 0 0 0 0 0 0 0 0 0 0 0 0 0 0
0 0 0 0 0 0 0 0 0 0 0 0 0 0 0 0 0 0 0 0 0 0 0 0 0 0 0 0 0 0 0 0 0 0 0 0 0 0 0 0 0 0 0 0 0 0 0 0 0 0 0 0 0 0
0 0 0 0 0 0 0 0 0 0 0 0 0 0 0 0 0 0 0 0 0 0 0 0 0 0 0 0 0 0 0 0 0 0 0 0 0 0 0 0 0 0 0 0 0 0 0 0 0 0 0 0 0 0
0 0 0 0 0 0 0 0 0 0 0 0 0 0 0 0 0 0 0 0 0 0 0 0 0 0 0 0 0 0 0 0 0 0 0 0 0 0 0 0 0 0 0 0 0 0 0 0 0 0 0 0 0 0
0 0 0 0 0 0 0 0 0 0 0 0 0 0 0 0 0 0 0 0 0 0 0 0 0 0 0 0 0 0 0 0 0 0 0 0 0 0 0 0 0 0 0 0 0 0 0 0 0 0 0 0 0 0
0 0 0 -0 0 0 0 0 -0 0 0 0 0 0 0 0 0 0 0 0 0 0 0 0 0 0 0 0 0 0 0 0 0 0 0 0 0 0 0 0 0 0 0 0 0 0 0 0 0 0 0 0 0 0
-0 -0 -0 -0 -0 0 -0 -0 -0 -0 -0 0 0 0 0 0 0 0 0 0 0 0 0 0 0 0 0 0 0 0 0 0 0 0 0 0 0 0 0 0 0 0 0 0 0 0 0 0 0 0 0 0 0 0
0 0 0 -0 -0 0 -0 0 0 0 0 0 0 0 0 0 0 0 0 0 0 0 0 0 0 0 0 0 0 0 0 0 0 0 0 0 0 0 0 0 0 0 0 0 0 0 0 0 0 0 0 0 0 0
0 0 0 0 0 0 0 0 -0 0 0 0 0 0 0 0 0 0 0 0 0 0 0 0 0 0 0 0 0 0 0 0 0 0 0 0 0 0 0 0 0 0 0 0 0 0 0 0 0 0 0 0 0 0
-0 -0 -0 0 0 0 0 -0 0 0 0 0 0 0 0 0 0 0 0 0 0 0 0 0 0 0 0 0 0 0 0 0 0 0 0 0 0 0 0 0 0 0 0 0 0 0 0 0 0 0 0 0 0 0
-0 -0 0 0 -0 0 0 0 0 0 0 0 0 0 0 0 0 0 0 0 0 0 0 0 0 0 0 0 0 0 0 0 0 0 0 0 0 0 0 0 0 0 0 0 0 0 0 0 0 0 0 0 0 0
-0 -0 -0 -0 -0 -0 -0 0 -0 0 0 0 0 0 0 0 0 0 0 0 0 0 0 0 0 0 0 0 0 0 0 0 0 0 0 0 0 0 0 0 0 0 0 0 0 0 0 0 0 0 0 0 0 0
-0 0 0 0 -0 -0 -0 -0 0 0 0 0 0 0 0 0 0 0 0 0 0 0 0 0 0 0 0 0 0 0 -0 0 0 0 0 0 0 0 0 0 0 0 0 0 0 0 0 0 0 0 0 0 0 0
0 0 -0 -0 -0 0 -0 0 0 0 0 0 0 0 0 0 0 0 0 0 0 0 0 0 0 0 0 0 0 0 0 0 0 0 0 0 0 0 0 0 0 0 0 0 0 0 0 0 0 0 0 0 0 0
0 -0 -0 -0 -0 -0 -0 0 0 0 0 0 0 0 0 0 0 0 0 0 0 0 0 0 0 0 0 0 0 0 0 0 0 0 0 0 0 0 0 0 0 0 0 0 0 0 0 0 0 0 0 0 0 0
0 0 -0 -0 0 0 0 0 0 0 0 0 0 0 0 0 0 0 0 0 0 0 0 0 0 0 0 0 0 0 0 0 0 0 0 0 0 0 0 0 0 0 0 0 0 0 0 0 0 0 0 0 0 0
0 0 -0 0 0 0 0 0 0 0 0 0 0 0 0 0 0 0 0 0 0 0 0 0 0 0 0 0 0 0 0 0 0 0 0 0 0 0 0 0 0 0 0 0 0 0 0 0 0 0 0 0 0 0
0 0 -0 -0 0 0 0 0 0 0 0 0 0 0 0 0 0 0 0 0 0 0 0 0 0 0 0 0 0 0 0 0 0 0 0 0 0 0 0 0 0 0 0 0 0 0 0 0 0 0 0 0 0 0
0 0 0 0 0 0 0 0 0 0 0 0 0 0 0 0 0 0 0 0 0 0 0 0 0 0 0 0 0 0 0 0 0 0 0 0 0 0 0 0 0 0 0 0 0 0 0 0 0 0 0 0 0 0
0 0 0 0 0 0 0 0 0 0 0 0 0 0 0 0 0 0 0 0 0 0 0 0 0 0 0 0 0 0 0 0 0 0 0 0 0 0 0 0 0 0 0 0 0 0 0 0 0 0 0 0 0 0
0 0 0 0 0 0 0 0 0 0 0 0 0 0 0 0 0 0 0 0 -0 0 0 0 0 0 0 0 0 0 0 0 0 0 0 0 0 0 0 0 0 0 0 0 0 0 0 0 0 0 0 0 0 0
0 0 0 0 0 0 0 0 0 0 0 0 0 0 0 0 -0 0 -0 0 -0 0 0 0 0 0 0 0 0 0 0 0 0 0 0 0 0 0 0 0 0 0 0 0 0 0 0 0 0 0 0 0 0 0
0 0 0 0 0 0 0 0 0 0 0 0 0 0 0 0 -0 -0 0 0 0 0 0 0 0 0 0 0 0 0 0 0 0 0 0 0 0 0 0 0 0 0 0 0 0 0 0 0 0 0 0 0 0 0
-0 0 0 0 0 0 0 0 0 0 0 0 0 0 0 0 0 0 0 0 0 0 0 0 0 0 0 0 0 0 0 0 0 0 0 0 0 0 0 0 0 0 0 0 0 0 0 0 0 0 0 0 0 0
0 0 0 0 0 0 0 0 0 0 0 0 0 0 0 0 0 0 0 0 0 0 0 0 0 0 0 0 0 0 0 0 0 0 0 0 0 0 0 0 0 0 0 0 0 0 0 0 0 0 0 0 0 0
0 0 0 0 0 0 0 0 0 0 0 0 0 0 0 0 0 0 0 0 0 0 0 0 0 0 0 0 0 0 0 0 0 0 0 0 0 0 0 0 0 0 0 0 0 0 0 0 0 0 0 0 0 0
0 0 0 0 0 0 0 0 0 0 0 0 0 0 0 0 0 0 0 0 0 0 0 0 0 0 0 0 0 0 0 0 0 0 0 0 0 0 0 0 0 0 0 0 0 0 0 0 0 0 0 0 0 0
0 0 0 0 0 0 0 0 0 0 0 0 0 0 0 0 0 0 0 0 0 0 0 0 0 0 0 0 0 0 0 0 0 0 0 0 0 0 0 0 0 0 0 0 0 0 0 0 0 0 0 0 0 0
0 0 0 0 0 0 0 0 0 0 0 0 0 0 0 0 0 -0 0 0 0 0 0 0 0 0 0 0 0 0 0 0 0 0 0 0 0 0 0 0 0 0 0 0 0 0 0 0 0 0 0 0 0 0
0 -0 -0 -0 -0 0 0 0 -0 -0 -0 0 -0 0 0 0 0 0 0 0 0 0 -0 0 0 -0 0 0 0 0 0 0 0 0 0 0 0 0 0 0 0 0 0 0 0 0 0 0 0 0 0 0 0 0
0 0 0 -0 0 0 0 -0 -0 -0 -0 0 0 0 0 0 0 0 0 0 0 0 0 0 0 0 0 0 0 0 0 0 0 0 0 0 0 0 0 0 0 0 0 0 0 0 0 0 0 0 0 0 0 0
Wind_Speed_500mb
31 30 29 26 28 30 33 34 36 36 38 43 48 47 46 49 46 40 39 49 48 20 29 39 42 27 23 16 8 11 10 1 5 6 7 7 6 11 7 5 11 17 15 8 6 5 17 31 12 20 10 15 25 22
31 31 28 23 20 16 21 33 37 39 38 38 43 48 48 49 52 41 45 38 45 39 14 45 50 52 47 54 37 30 3 12 20 7 2 6 4 3 8 7 3 5 10 11 15 11 2 41 8 18 23 37 27 22
30 33 29 22 22 22 20 20 26 35 39 38 38 42 46 46 49 53 51 32 40 28 25 36 50 62 59 51 42 29 18 14 15 9 12 4 6 7 8 9 4 5 5 6 6 4 12 23 24 30 33 27 23 22
38 36 33 31 29 30 29 30 29 28 34 41 41 39 41 48 48 46 49 43 49 10 7 17 39 55 56 66 58 48 42 26 15 18 8 5 5 12 6 5 7 8 19 12 1 6 20 15 23 33 28 30 27 18
33 36 39 40 40 40 40 40 40 38 36 36 45 43 42 43 43 45 50 51 50 35 1 7 14 35 52 57 66 58 43 40 27 10 4 6 8 8 3 4 5 18 13 10 9 35 16 30 40 39 37 30 17 21
33 30 35 38 41 43 47 47 49 48 46 41 41 48 47 44 40 43 25 52 45 48 4 3 8 16 23 47 62 64 52 36 31 20 9 12 15 14 8 8 12 41 34 35 15 30 28 22 39 53 44 29 28 27
52 47 45 45 45 49 49 56 55 58 55 51 46 47 51 50 53 53 10 12 46 57 10 4 5 18 16 24 34 37 48 40 38 23 15 17 14 22 6 10 18 41 47 33 30 36 27 45 45 52 36 29 27 27
58 63 64 60 55 54 62 65 69 75 71 59 52 48 48 48 50 53 54 16 43 37 17 5 3 3 35 18 11 24 19 35 25 21 12 10 14 8 5 49 38 33 34 40 44 48 44 47 42 34 34 31 35 35
57 66 63 59 58 54 71 49 56 46 57 61 55 49 46 53 46 38 49 52 50 28 13 9 10 6 24 12 19 18 20 7 18 15 10 24 9 13 27 37 48 56 53 55 53 51 44 40 39 41 41 43 44 38
23 5 25 47 66 62 46 38 42 49 58 61 55 42 24 38 41 38 27 33 51 24 18 7 23 6 31 23 13 16 15 6 9 9 19 10 17 60 77 75 52 61 65 61 58 52 56 58 57 55 52 43 40 39
42 24 22 17 12 24 36 50 55 64 59 76 51 34 16 42 41 22 13 16 12 10 19 18 29 7 26 7 9 20 7 6 7 9 13 8 7 38 87 73 75 64 58 59 65 74 71 68 65 63 55 48 43 41
45 39 30 23 28 36 51 35 35 59 70 74 47 44 37 21 15 11 9 4 9 11 16 15 21 21 21 16 5 10 9 7 11 22 10 7 20 67 62 82 91 87 76 71 69 70 67 64 61 53 50 45 42 39
43 41 35 25 35 43 34 16 45 63 71 55 26 25 18 16 15 16 16 3 5 3 21 21 8 22 12 21 6 8 10 13 16 11 10 10 41 70 68 70 81 93 89 76 76 76 70 63 55 49 43 42 40 35
42 43 29 27 39 44 18 35 50 63 61 10 10 12 10 7 7 6 10 10 14 24 41 47 13 8 14 8 5 5 2 2 7 12 13 7 53 73 66 71 83 95 93 88 83 77 71 63 55 48 45 40 34 29
44 36 19 37 41 20 42 47 60 59 13 7 12 11 9 6 6 13 22 28 39 52 55 16 10 16 5 6 6 6 6 6 7 9 8 37 55 56 62 79 88 80 81 83 80 70 63 56 49 44 39 32 26 23
39 16 22 36 35 19 56 69 65 36 11 8 9 6 1 4 6 3 7 13 32 42 30 12 7 7 8 8 8 10 11 10 8 8 22 23 27 40 56 64 67 65 63 67 67 61 53 46 41 36 31 24 17 15
17 15 27 19 15 38 75 61 22 12 12 8 4 5 1 10 10 7 5 12 27 33 6 7 11 18 4 5 4 7 11 9 12 19 22 26 34 34 32 37 48 54 60 60 55 51 47 42 35 30 23 15 12 13
13 21 25 4 10 10 29 22 11 13 13 10 4 5 11 8 11 10 9 17 15 8 7 8 8 6 12 15 7 8 14 20 23 25 25 20 19 24 26 34 42 45 48 48 45 44 40 35 29 22 16 12 10 11
12 19 22 4 13 7 9 12 11 9 9 9 12 10 9 13 21 13 7 13 10 7 4 5 6 7 8 2 2 2 15 26 18 18 13 16 20 29 36 40 42 44 42 41 39 36 33 29 22 17 13 10 10 10
8 10 14 5 6 8 12 13 12 17 5 5 7 8 8 9 10 16 14 10 10 4 2 1 4 2 2 2 7 4 8 20 30 27 22 26 31 36 39 39 40 41 40 39 37 31 25 20 16 13 11 11 10 11
7 8 9 9 11 22 16 11 15 11 12 8 9 7 9 11 12 13 11 10 7 6 2 7 8 5 3 4 12 13 14 22 22 23 33 34 35 36 39 39 36 33 29 28 24 23 23 20 16 13 11 11 11 12
9 6 7 16 13 13 18 17 12 10 8 8 6 6 9 4 5 5 4 9 6 3 2 1 1 4 10 16 19 18 18 16 19 17 34 38 41 39 36 32 30 28 26 22 20 19 19 18 15 14 13 14 14 14
8 9 13 15 11 14 7 8 7 8 5 2 2 4 4 4 4 2 7 5 3 6 7 9 9 10 15 19 18 16 16 15 20 29 34 30 31 30 29 27 25 21 21 23 21 20 20 18 17 17 17 16 14 13
15 13 18 16 24 5 6 12 10 8 8 7 5 4 4 4 11 4 4 6 4 5 8 11 13 13 14 14 13 14 16 19 18 21 21 22 20 23 25 23 21 21 22 20 19 19 19 19 18 16 14 14 14 14
10 25 18 15 19 12 13 9 9 8 7 5 4 4 3 10 1 4 3 2 3 5 9 10 10 10 12 12 11 11 12 11 14 12 14 14 14 13 15 15 15 16 16 16 18 19 19 18 16 15 14 15 17 18
17 22 14 4 11 7 5 6 8 5 4 3 5 9 7 3 5 5 3 1 5 9 10 11 10 10 9 9 8 8 7 5 5 6 5 6 10 11 10 11 13 14 16 17 18 19 19 17 16 15 16 19 20 22
12 9 15 18 7 4 8 8 4 5 7 5 5 8 4 6 3 4 8 7 1 3 6 7 6 4 4 3 2 2 3 4 6 5 6 9 10 11 11 12 15 17 13 17 17 17 17 17 17 18 19 22 23 25
10 17 6 19 11 14 7 4 6 4 4 6 2 8 5 4 5 5 6 8 3 2 4 5 5 4 2 3 3 3 5 5 6 6 8 9 11 12 13 14 16 15 16 15 16 18 18 18 19 21 23 25 25 29
11 21 9 9 6 11 9 4 2 4 9 5 3 3 5 4 4 6 9 6 6 7 7 7 7 7 6 6 6 6 8 8 8 7 8 8 13 15 16 15 15 15 15 15 16 16 17 19 23 26 28 29 30 32
13 22 7 5 7 6 4 7 7 15 11 9 10 8 9 5 4 7 7 6 6 10 12 10 9 8 7 7 6 7 8 9 11 11 10 12 13 13 11 12 14 15 16 16 18 20 22 26 28 32 35 37 38 40
15 14 5 8 3 3 10 16 12 11 7 5 9 7 10 11 3 5 5 4 6 8 10 11 11 11 11 10 9 10 11 12 14 15 16 15 14 14 14 14 14 16 17 19 21 24 27 31 34 37 40 42 42 46
15 13 5 6 5 10 11 17 10 6 5 5 4 9 11 9 7 7 13 9 1 3 6 10 9 8 13 16 16 15 12 13 13 13 13 14 16 18 20 21 22 25 27 29 30 30 32 35 39 42 45 46 47 48
8 9 8 7 6 7 15 21 10 14 4 6 7 11 10 9 5 10 13 13 6 4 7 10 12 12 11 11 11 12 13 13 14 13 15 17 19 22 24 25 27 29 31 32 34 36 38 41 44 46 48 50 51 53
Wind_Direction_500mb
261 257 260 260 258 255 253 253 249 248 246 242 239 237 235 234 234 230 235 235 226 223 233 214 211 182 172 177 148 156 112 185 63 156 142 187 139 206 116 197 180 172 165 170 121 113 260 172 140 168 172 136 137 136
262 255 253 251 255 262 258 252 247 246 245 241 241 241 236 232 229 231 236 234 234 228 245 224 227 227 228 224 202 178 198 160 177 106 128 102 121 118 150 201 232 209 185 176 180 202 22 171 146 180 157 150 155 160
270 260 248 253 254 265 270 277 274 255 242 239 238 238 236 231 227 224 230 227 203 220 244 237 234 227 225 227 228 200 218 194 188 152 156 152 155 132 161 231 111 269 192 140 103 193 168 164 147 151 146 154 162 169
255 254 253 257 260 258 264 267 269 267 254 243 236 234 232 230 224 221 228 223 195 168 204 245 234 228 226 226 229 234 233 206 193 179 124 132 148 191 204 173 167 182 149 158 275 91 133 179 171 165 159 162 168 188
265 262 258 259 256 258 261 261 261 260 259 253 237 230 227 225 224 224 230 239 223 207 171 220 228 225 225 224 224 228 225 217 196 158 119 192 147 115 348 53 238 187 165 176 212 174 165 190 187 187 190 188 219 261
287 270 262 253 256 256 258 255 256 251 250 250 244 230 224 220 215 217 219 231 219 217 235 227 220 233 214 222 222 222 217 214 210 207 191 182 179 185 151 197 222 197 205 201 165 177 189 202 203 198 196 235 250 250
273 270 267 266 265 262 265 262 260 240 241 239 240 233 223 217 213 205 208 185 205 217 185 243 276 193 199 204 210 214 225 220 216 209 199 175 186 178 119 223 193 209 213 197 204 190 175 185 195 202 230 230 238 248
263 259 259 260 265 264 266 261 248 259 228 226 228 228 221 216 218 218 216 183 179 182 190 213 234 214 184 166 164 189 187 202 213 211 180 169 147 144 231 241 208 195 198 209 220 219 227 216 219 218 214 233 243 244
307 237 247 257 261 266 269 286 235 230 210 216 217 218 217 213 210 216 220 217 197 189 179 156 144 213 182 172 168 169 187 180 199 196 196 169 167 203 225 226 203 197 200 213 201 209 224 231 225 219 230 247 241 244
2 318 254 258 259 253 267 282 235 223 212 207 206 204 204 205 202 203 202 198 198 209 204 166 175 195 179 169 180 140 183 212 190 209 159 206 213 227 234 234 230 217 223 223 203 212 221 227 227 233 247 241 243 249
359 0 333 316 284 286 283 280 260 235 234 197 198 203 167 170 174 185 218 191 175 185 166 152 175 144 198 155 179 199 189 174 211 207 186 195 219 226 228 230 231 233 233 233 238 243 241 247 245 242 235 237 242 254
342 346 329 305 309 310 309 276 239 201 193 184 186 175 154 172 182 188 175 200 200 182 179 161 169 161 170 193 151 175 190 162 232 155 186 210 230 230 223 228 231 233 233 229 226 228 233 236 238 232 224 230 245 254
334 331 321 303 322 317 310 208 178 167 157 151 156 158 161 186 192 185 166 183 160 207 153 143 120 157 161 190 213 192 223 194 122 179 207 213 225 233 228 225 232 233 230 223 220 218 219 220 218 220 230 239 245 251
330 324 316 303 319 314 220 175 175 159 157 139 145 142 190 189 187 176 148 159 172 172 158 151 122 139 159 173 182 238 99 359 217 184 208 242 230 238 235 226 228 229 221 216 213 214 213 214 218 225 234 237 239 252
330 323 314 320 322 294 177 165 169 165 128 154 136 176 208 159 109 159 190 163 166 170 160 147 132 135 150 187 183 108 136 250 238 232 218 226 232 226 225 224 225 222 212 207 206 206 210 216 222 225 225 227 237 252
330 330 324 338 8 185 167 167 156 157 109 82 70 98 323 27 350 182 177 120 156 159 151 128 117 109 214 178 153 190 167 209 226 216 241 258 235 225 227 226 226 220 214 208 206 208 211 213 214 212 214 217 230 253
335 347 356 348 131 134 153 155 154 96 93 70 90 97 56 39 114 132 118 119 148 153 165 123 138 199 115 112 224 189 190 210 231 260 274 262 254 247 236 221 211 206 200 199 198 197 198 195 197 200 205 216 240 267
338 359 0 327 217 188 124 134 93 71 64 54 72 40 69 73 98 101 111 143 148 157 149 186 128 156 173 170 225 226 232 241 258 267 269 270 230 223 210 197 187 184 183 181 181 182 181 184 188 193 202 219 242 268
332 346 2 14 176 166 71 66 61 92 82 108 113 96 99 99 73 81 147 166 154 131 122 142 136 186 216 23 310 126 223 222 224 249 205 185 178 169 168 167 167 164 167 168 170 173 173 175 182 192 204 220 241 255
338 359 19 55 22 92 81 53 66 88 94 101 75 66 81 80 92 58 69 110 129 58 41 251 225 4 8 241 213 217 239 227 200 176 167 167 159 158 159 163 163 161 166 166 169 170 170 172 178 185 202 218 223 224
21 354 33 132 66 62 80 60 63 78 110 95 105 64 59 59 46 42 51 90 74 49 331 345 325 356 62 127 170 183 177 178 180 188 189 169 159 160 160 156 164 162 170 166 166 166 167 175 180 185 195 201 207 212
42 60 69 56 70 71 72 50 84 91 92 96 68 73 75 70 81 37 82 52 51 358 304 298 140 96 104 116 122 134 149 170 184 192 176 170 164 164 163 163 165 165 164 164 168 174 175 177 178 184 192 199 202 208
75 66 54 42 81 53 53 56 80 44 108 91 126 80 46 50 41 111 88 57 35 44 114 128 125 114 111 119 117 111 118 121 144 153 157 159 164 164 164 164 163 168 174 176 178 177 181 181 182 191 196 198 209 223
57 54 34 39 30 60 33 33 39 39 53 37 31 80 30 349 349 65 64 352 25 93 120 130 131 125 127 131 129 120 112 111 126 142 145 154 165 166 167 170 172 177 179 182 186 192 192 192 194 198 205 220 234 248
66 11 20 8 14 22 31 21 8 43 63 3 26 55 19 343 115 75 67 135 154 141 137 132 127 145 160 153 147 140 138 139 140 140 148 159 165 176 181 182 191 198 203 207 204 203 202 201 206 215 224 244 254 261
63 10 35 335 360 49 348 43 22 28 13 47 10 319 332 315 31 38 49 339 174 169 163 159 150 136 139 145 154 163 165 149 127 143 143 179 192 187 196 212 216 214 209 208 213 215 212 212 218 231 241 253 262 267
55 343 10 25 13 55 74 58 84 68 52 25 324 338 346 70 343 304 343 350 45 159 169 172 173 162 145 136 157 191 214 218 220 215 213 216 223 217 213 214 217 225 222 217 217 221 226 230 237 247 254 261 270 278
74 30 45 347 26 30 111 62 47 38 295 335 288 23 97 150 218 312 333 345 313 223 210 209 213 216 208 214 226 229 234 236 238 235 241 236 230 224 219 216 221 222 222 221 222 228 237 245 254 261 268 273 276 282
39 355 356 16 38 48 51 90 221 3 347 336 110 308 278 277 290 304 315 306 234 220 215 217 225 228 233 233 226 224 229 226 224 222 235 238 225 218 215 217 221 225 233 239 245 251 256 261 264 269 273 279 283 284
5 1 17 32 68 23 359 9 340 326 316 313 302 308 301 294 285 307 305 298 239 212 213 211 210 210 219 222 213 210 208 209 208 212 215 227 224 218 222 228 233 239 248 255 261 266 269 272 279 283 287 287 288 291
348 352 35 39 102 16 345 336 331 327 318 303 309 293 309 317 333 21 359 272 243 229 219 211 211 213 212 205 203 205 208 209 209 215 223 228 229 232 237 244 251 255 260 265 271 276 279 280 282 283 285 287 290 292
5 28 29 24 337 349 350 350 335 324 319 318 312 326 335 325 328 20 12 12 251 204 191 205 203 202 206 209 210 209 211 216 225 231 239 247 254 261 270 275 279 280 280 280 281 280 282 285 287 289 290 291 292 293
358 5 14 342 347 6 351 348 5 352 317 335 345 341 342 338 291 14 10 9 357 267 228 215 222 236 231 233 234 238 245 249 257 262 266 270 272 274 276 278 279 280 282 284 285 287 288 289 290 292 294 295 296 297
Wind_Speed_850mb
31 30 29 26 28 30 33 34 36 36 38 43 48 47 46 49 46 40 39 49 48 20 29 39 42 27 23 16 8 11 10 1 5 6 7 7 6 11 7 5 11 17 15 8 6 5 17 31 12 20 10 15 25 22
31 31 28 23 20 16 21 33 37 39 38 38 43 48 48 49 52 41 45 38 45 39 14 45 50 52 47 54 37 30 3 12 20 7 2 6 4 3 8 7 3 5 10 11 15 11 2 41 8 18 23 37 27 22
30 33 29 22 22 22 20 20 26 35 39 38 38 42 46 46 49 53 51 32 40 28 25 36 50 62 59 51 42 29 18 14 15 9 12 4 6 7 8 9 4 5 5 6 6 4 12 23 24 30 33 27 23 22
38 36 33 31 29 30 29 30 29 28 34 41 41 39 41 48 48 46 49 43 49 10 7 17 39 55 56 66 58 48 42 26 15 18 8 5 5 12 6 5 7 8 19 12 1 6 20 15 23 33 28 30 27 18
33 36 39 40 40 40 40 40 40 38 36 36 45 43 42 43 43 45 50 51 50 35 1 7 14 35 52 57 66 58 43 40 27 10 4 6 8 8 3 4 5 18 13 10 9 35 16 30 40 39 37 30 17 21
33 30 35 38 41 43 47 47 49 48 46 41 41 48 47 44 40 43 25 52 45 48 4 3 8 16 23 47 62 64 52 36 31 20 9 12 15 14 8 8 12 41 34 35 15 30 28 22 39 53 44 29 28 27
52 47 45 45 45 49 49 56 55 58 55 51 46 47 51 50 53 53 10 12 46 57 10 4 5 18 16 24 34 37 48 40 38 23 15 17 14 22 6 10 18 41 47 33 30 36 27 45 45 52 36 29 27 27
58 63 64 60 55 54 62 65 69 75 71 59 52 48 48 48 50 53 54 16 43 37 17 5 3 3 35 18 11 24 19 35 25 21 12 10 14 8 5 49 38 33 34 40 44 48 44 47 42 34 34 31 35 35
57 66 63 59 58 54 71 49 56 46 57 61 55 49 46 53 46 38 49 52 50 28 13 9 10 6 24 12 19 18 20 7 18 15 10 24 9 13 27 37 48 56 53 55 53 51 44 40 39 41 41 43 44 38
23 5 25 47 66 62 46 38 42 49 58 61 55 42 24 38 41 38 27 33 51 24 18 7 23 6 31 23 13 16 15 6 9 9 19 10 17 60 77 75 52 61 65 61 58 52 56 58 57 55 52 43 40 39
42 24 22 17 12 24 36 50 55 64 59 76 51 34 16 42 41 22 13 16 12 10 19 18 29 7 26 7 9 20 7 6 7 9 13 8 7 38 87 73 75 64 58 59 65 74 71 68 65 63 55 48 43 41
45 39 30 23 28 36 51 35 35 59 70 74 47 44 37 21 15 11 9 4 9 11 16 15 21 21 21 16 5 10 9 7 11 22 10 7 20 67 62 82 91 87 76 71 69 70 67 64 61 53 50 45 42 39
43 41 35 25 35 43 34 16 45 63 71 55 26 25 18 16 15 16 16 3 5 3 21 21 8 22 12 21 6 8 10 13 16 11 10 10 41 70 68 70 81 93 89 76 76 76 70 63 55 49 43 42 40 35
42 43 29 27 39 44 18 35 50 63 61 10 10 12 10 7 7 6 10 10 14 24 41 47 13 8 14 8 5 5 2 2 7 12 13 7 53 73 66 71 83 95 93 88 83 77 71 63 55 48 45 40 34 29
44 36 19 37 41 20 42 47 60 59 13 7 12 11 9 6 6 13 22 28 39 52 55 16 10 16 5 6 6 6 6 6 7 9 8 37 55 56 62 79 88 80 81 83 80 70 63 56 49 44 39 32 26 23
39 16 22 36 35 19 56 69 65 36 11 8 9 6 1 4 6 3 7 13 32 42 30 12 7 7 8 8 8 10 11 10 8 8 22 23 27 40 56 64 67 65 63 67 67 61 53 46 41 36 31 24 17 15
17 15 27 19 15 38 75 61 22 12 12 8 4 5 1 10 10 7 5 12 27 33 6 7 11 18 4 5 4 7 11 9 12 19 22 26 34 34 32 37 48 54 60 60 55 51 47 42 35 30 23 15 12 13
13 21 25 4 10 10 29 22 11 13 13 10 4 5 11 8 11 10 9 17 15 8 7 8 8 6 12 15 7 8 14 20 23 25 25 20 19 24 26 34 42 45 48 48 45 44 40 35 29 22 16 12 10 11
12 19 22 4 13 7 9 12 11 9 9 9 12 10 9 13 21 13 7 13 10 7 4 5 6 7 8 2 2 2 15 26 18 18 13 16 20 29 36 40 42 44 42 41 39 36 33 29 22 17 13 10 10 10
8 10 14 5 6 8 12 13 12 17 5 5 7 8 8 9 10 16 14 10 10 4 2 1 4 2 2 2 7 4 8 20 30 27 22 26 31 36 39 39 40 41 40 39 37 31 25 20 16 13 11 11 10 11
7 8 9 9 11 22 16 11 15 11 12 8 9 7 9 11 12 13 11 10 7 6 2 7 8 5 3 4 12 13 14 22 22 23 33 34 35 36 39 39 36 33 29 28 24 23 23 20 16 13 11 11 11 12
9 6 7 16 13 13 18 17 12 10 8 8 6 6 9 4 5 5 4 9 6 3 2 1 1 4 10 16 19 18 18 16 19 17 34 38 41 39 36 32 30 28 26 22 20 19 19 18 15 14 13 14 14 14
8 9 13 15 11 14 7 8 7 8 5 2 2 4 4 4 4 2 7 5 3 6 7 9 9 10 15 19 18 16 16 15 20 29 34 30 31 30 29 27 25 21 21 23 21 20 20 18 17 17 17 16 14 13
15 13 18 16 24 5 6 12 10 8 8 7 5 4 4 4 11 4 4 6 4 5 8 11 13 13 14 14 13 14 16 19 18 21 21 22 20 23 25 23 21 21 22 20 19 19 19 19 18 16 14 14 14 14
10 25 18 15 19 12 13 9 9 8 7 5 4 4 3 10 1 4 3 2 3 5 9 10 10 10 12 12 11 11 12 11 14 12 14 14 14 13 15 15 15 16 16 16 18 19 19 18 16 15 14 15 17 18
17 22 14 4 11 7 5 6 8 5 4 3 5 9 7 3 5 5 3 1 5 9 10 11 10 10 9 9 8 8 7 5 5 6 5 6 10 11 10 11 13 14 16 17 18 19 19 17 16 15 16 19 20 22
12 9 15 18 7 4 8 8 4 5 7 5 5 8 4 6 3 4 8 7 1 3 6 7 6 4 4 3 2 2 3 4 6 5 6 9 10 11 11 12 15 17 13 17 17 17 17 17 17 18 19 22 23 25
10 17 6 19 11 14 7 4 6 4 4 6 2 8 5 4 5 5 6 8 3 2 4 5 5 4 2 3 3 3 5 5 6 6 8 9 11 12 13 14 16 15 16 15 16 18 18 18 19 21 23 25 25 29
11 21 9 9 6 11 9 4 2 4 9 5 3 3 5 4 4 6 9 6 6 7 7 7 7 7 6 6 6 6 8 8 8 7 8 8 13 15 16 15 15 15 15 15 16 16 17 19 23 26 28 29 30 32
13 22 7 5 7 6 4 7 7 15 11 9 10 8 9 5 4 7 7 6 6 10 12 10 9 8 7 7 6 7 8 9 11 11 10 12 13 13 11 12 14 15 16 16 18 20 22 26 28 32 35 37 38 40
15 14 5 8 3 3 10 16 12 11 7 5 9 7 10 11 3 5 5 4 6 8 10 11 11 11 11 10 9 10 11 12 14 15 16 15 14 14 14 14 14 16 17 19 21 24 27 31 34 37 40 42 42 46
15 13 5 6 5 10 11 17 10 6 5 5 4 9 11 9 7 7 13 9 1 3 6 10 9 8 13 16 16 15 12 13 13 13 13 14 16 18 20 21 22 25 27 29 30 30 32 35 39 42 45 46 47 48
8 9 8 7 6 7 15 21 10 14 4 6 7 11 10 9 5 10 13 13 6 4 7 10 12 12 11 11 11 12 13 13 14 13 15 17 19 22 24 25 27 29 31 32 34 36 38 41 44 46 48 50 51 53
Wind_Direction_850mb
261 257 260 260 258 255 253 253 249 248 246 242 239 237 235 234 234 230 235 235 226 223 233 214 211 182 172 177 148 156 112 185 63 156 142 187 139 206 116 197 180 172 165 170 121 113 260 172 140 168 172 136 137 136
262 255 253 251 255 262 258 252 247 246 245 241 241 241 236 232 229 231 236 234 234 228 245 224 227 227 228 224 202 178 198 160 177 106 128 102 121 118 150 201 232 209 185 176 180 202 22 171 146 180 157 150 155 160
270 260 248 253 254 265 270 277 274 255 242 239 238 238 236 231 227 224 230 227 203 220 244 237 234 227 225 227 228 200 218 194 188 152 156 152 155 132 161 231 111 269 192 140 103 193 168 164 147 151 146 154 162 169
255 254 253 257 260 258 264 267 269 267 254 243 236 234 232 230 224 221 228 223 195 168 204 245 234 228 226 226 229 234 233 206 193 179 124 132 148 191 204 173 167 182 149 158 275 91 133 179 171 165 159 162 168 188
265 262 258 259 256 258 261 261 261 260 259 253 237 230 227 225 224 224 230 239 223 207 171 220 228 225 225 224 224 228 225 217 196 158 119 192 147 115 348 53 238 187 165 176 212 174 165 190 187 187 190 188 219 261
287 270 262 253 256 256 258 255 256 251 250 250 244 230 224 220 215 217 219 231 219 217 235 227 220 233 214 222 222 222 217 214 210 207 191 182 179 185 151 197 222 197 205 201 165 177 189 202 203 198 196 235 250 250
273 270 267 266 265 262 265 262 260 240 241 239 240 233 223 217 213 205 208 185 205 217 185 243 276 193 199 204 210 214 225 220 216 209 199 175 186 178 119 223 193 209 213 197 204 190 175 185 195 202 230 230 238 248
263 259 259 260 265 264 266 261 248 259 228 226 228 228 221 216 218 218 216 183 179 182 190 213 234 214 184 166 164 189 187 202 213 211 180 169 147 144 231 241 208 195 198 209 220 219 227 216 219 218 214 233 243 244
307 237 247 257 261 266 269 286 235 230 210 216 217 218 217 213 210 216 220 217 197 189 179 156 144 213 182 172 168 169 187 180 199 196 196 169 167 203 225 226 203 197 200 213 201 209 224 231 225 219 230 247 241 244
2 318 254 258 259 253 267 282 235 223 212 207 206 204 204 205 202 203 202 198 198 209 204 166 175 195 179 169 180 140 183 212 190 209 159 206 213 227 234 234 230 217 223 223 203 212 221 227 227 233 247 241 243 249
359 0 333 316 284 286 283 280 260 235 234 197 198 203 167 170 174 185 218 191 175 185 166 152 175 144 198 155 179 199 189 174 211 207 186 195 219 226 228 230 231 233 233 233 238 243 241 247 245 242 235 237 242 254
342 346 329 305 309 310 309 276 239 201 193 184 186 175 154 172 182 188 175 200 200 182 179 161 169 161 170 193 151 175 190 162 232 155 186 210 230 230 223 228 231 233 233 229 226 228 233 236 238 232 224 230 245 254
334 331 321 303 322 317 310 208 178 167 157 151 156 158 161 186 192 185 166 183 160 207 153 143 120 157 161 190 213 192 223 194 122 179 207 213 225 233 228 225 232 233 230 223 220 218 219 220 218 220 230 239 245 251
330 324 316 303 319 314 220 175 175 159 157 139 145 142 190 189 187 176 148 159 172 172 158 151 122 139 159 173 182 238 99 359 217 184 208 242 230 238 235 226 228 229 221 216 213 214 213 214 218 225 234 237 239 252
330 323 314 320 322 294 177 165 169 165 128 154 136 176 208 159 109 159 190 163 166 170 160 147 132 135 150 187 183 108 136 250 238 232 218 226 232 226 225 224 225 222 212 207 206 206 210 216 222 225 225 227 237 252
330 330 324 338 8 185 167 167 156 157 109 82 70 98 323 27 350 182 177 120 156 159 151 128 117 109 214 178 153 190 167 209 226 216 241 258 235 225 227 226 226 220 214 208 206 208 211 213 214 212 214 217 230 253
335 347 356 348 131 134 153 155 154 96 93 70 90 97 56 39 114 132 118 119 148 153 165 123 138 199 115 112 224 189 190 210 231 260 274 262 254 247 236 221 211 206 200 199 198 197 198 195 197 200 205 216 240 267
338 359 0 327 217 188 124 134 93 71 64 54 72 40 69 73 98 101 111 143 148 157 149 186 128 156 173 170 225 226 232 241 258 267 269 270 230 223 210 197 187 184 183 181 181 182 181 184 188 193 202 219 242 268
332 346 2 14 176 166 71 66 61 92 82 108 113 96 99 99 73 81 147 166 154 131 122 142 136 186 216 23 310 126 223 222 224 249 205 185 178 169 168 167 167 164 167 168 170 173 173 175 182 192 204 220 241 255
338 359 19 55 22 92 81 53 66 88 94 101 75 66 81 80 92 58 69 110 129 58 41 251 225 4 8 241 213 217 239 227 200 176 167 167 159 158 159 163 163 161 166 166 169 170 170 172 178 185 202 218 223 224
21 354 33 132 66 62 80 60 63 78 110 95 105 64 59 59 46 42 51 90 74 49 331 345 325 356 62 127 170 183 177 178 180 188 189 169 159 160 160 156 164 162 170 166 166 166 167 175 180 185 195 201 207 212
42 60 69 56 70 71 72 50 84 91 92 96 68 73 75 70 81 37 82 52 51 358 304 298 140 96 104 116 122 134 149 170 184 192 176 170 164 164 163 163 165 165 164 164 168 174 175 177 178 184 192 199 202 208
75 66 54 42 81 53 53 56 80 44 108 91 126 80 46 50 41 111 88 57 35 44 114 128 125 114 111 119 117 111 118 121 144 153 157 159 164 164 164 164 163 168 174 176 178 177 181 181 182 191 196 198 209 223
57 54 34 39 30 60 33 33 39 39 53 37 31 80 30 349 349 65 64 352 25 93 120 130 131 125 127 131 129 120 112 111 126 142 145 154 165 166 167 170 172 177 179 182 186 192 192 192 194 198 205 220 234 248
66 11 20 8 14 22 31 21 8 43 63 3 26 55 19 343 115 75 67 135 154 141 137 132 127 145 160 153 147 140 138 139 140 140 148 159 165 176 181 182 191 198 203 207 204 203 202 201 206 215 224 244 254 261
63 10 35 335 360 49 348 43 22 28 13 47 10 319 332 315 31 38 49 339 174 169 163 159 150 136 139 145 154 163 165 149 127 143 143 179 192 187 196 212 216 214 209 208 213 215 212 212 218 231 241 253 262 267
55 343 10 25 13 55 74 58 84 68 52 25 324 338 346 70 343 304 343 350 45 159 169 172 173 162 145 136 157 191 214 218 220 215 213 216 223 217 213 214 217 225 222 217 217 221 226 230 237 247 254 261 270 278
74 30 45 347 26 30 111 62 47 38 295 335 288 23 97 150 218 312 333 345 313 223 210 209 213 216 208 214 226 229 234 236 238 235 241 236 230 224 219 216 221 222 222 221 222 228 237 245 254 261 268 273 276 282
39 355 356 16 38 48 51 90 221 3 347 336 110 308 278 277 290 304 315 306 234 220 215 217 225 228 233 233 226 224 229 226 224 222 235 238 225 218 215 217 221 225 233 239 245 251 256 261 264 269 273 279 283 284
5 1 17 32 68 23 359 9 340 326 316 313 302 308 301 294 285 307 305 298 239 212 213 211 210 210 219 222 213 210 208 209 208 212 215 227 224 218 222 228 233 239 248 255 261 266 269 272 279 283 287 287 288 291
348 352 35 39 102 16 345 336 331 327 318 303 309 293 309 317 333 21 359 272 243 229 219 211 211 213 212 205 203 205 208 209 209 215 223 228 229 232 237 244 251 255 260 265 271 276 279 280 282 283 285 287 290 292
5 28 29 24 337 349 350 350 335 324 319 318 312 326 335 325 328 20 12 12 251 204 191 205 203 202 206 209 210 209 211 216 225 231 239 247 254 261 270 275 279 280 280 280 281 280 282 285 287 289 290 291 292 293
358 5 14 342 347 6 351 348 5 352 317 335 345 341 342 338 291 14 10 9 357 267 228 215 222 236 231 233 234 238 245 249 257 262 266 270 272 274 276 278 279 280 282 284 285 287 288 289 290 292 294 295 296 297